Starlink 32909

operational
NORAD ID: 62894 Int'l Des: 2025-024 Owner: SPXS Country: US Constellation: starlink
LEOCIRCULAR

Starlink 32909について

説明を読み込み中...

リアルタイム位置

3D地球を読み込み中...

次回通過

高度履歴

Altitude vs Time

uPlot chart will show altitude changes over time

軌道要素

1 62894U 25024R 25351.24245464 .00033583 00000-0 12236-2 0 9997
2 62894 42.9992 71.2460 0003006 284.5942 75.4576 15.27598529 49650
Epoch: Dec 17, 2025 • Age: 28 hours

現在のステータス

高度 494.2 km
速度 7.62 km/s
衛星直下点 -43.16°S, 102.3°E
打ち上げ日 Feb 4, 2025
運用期間 0.8 years
タイプ internet

技術仕様

分類 Payload
質量 730.00 kg
乾燥質量 700.00 kg
総質量 730.00 kg
長さ 0.30 m
直径 4.10 m
スパン 29.00 m
形状 Box + pan
製造者 SPXS
バスタイプ Starlink V2M
フェーズステータス In Orbit
所有者/国 SPXS/US

大規模コンステレーション

Loading constellations...